RH
83 86 89 85 81 84 77 71 61 47 46 47 57 70 68 63 65 63 65 67 63 59 55 56 51 52 55 52 48 46 47 53 57 54 58 65 63 63 63 67 69 71 78 84 87 89 88 92 96 93 89 79 70 69 74 75 77 78 79 77 71 66 64 66 65 65 69 67 65 60 60 64 65 70 79 83 83 83 84 82 83 84 84 85 83 86 83 78 71 74 75 49 50 61 54 54 49
82 84 85 80 76 77 64 62 61 41 43 56 58 62 62 61 65 62 63 66 64 60 54 53 51 50 52 49 44 47 54 53 51 53 60 63 61 63 63 67 68 68 77 83 85 87 90 89 90 91 87 83 76 71 75 79 81 82 82 78 73 70 67 66 64 66 71 71 67 59 60 62 63 72 77 81 83 82 84 83 85 85 84 84 82 81 69 57 50 51 59 47 38 44 46 45 41
75 77 75 73 68 66 60 57 54 39 42 56 57 56 59 59 61 62 63 65 62 58 55 56 54 49 50 50 46 52 59 54 49 50 56 59 58 63 64 66 68 70 77 82 83 84 91 90 87 89 86 86 85 76 76 81 81 83 82 78 76 72 69 67 64 68 72 75 69 60 61 59 58 71 79 84 85 83 83 83 85 85 85 87 83 69 50 39 37 36 42 48 42 38 41 40 41
70 69 66 66 62 59 57 49 41 38 41 49 58 60 58 56 59 62 61 60 55 53 54 56 55 47 48 52 47 49 56 55 52 52 54 54 56 63 64 65 69 72 77 81 83 84 89 89 89 91 87 89 90 78 76 82 81 83 82 80 79 75 73 70 69 71 74 77 70 62 62 56 54 69 83 88 86 84 82 79 81 84 86 88 87 65 40 35 31 27 34 48 50 40 37 39 48
66 64 64 64 59 52 47 39 35 41 48 47 53 60 58 56 60 62 58 57 51 51 52 48 49 45 45 49 49 50 56 56 52 51 52 53 58 64 66 68 71 73 78 82 82 83 87 87 90 93 89 91 92 82 79 82 82 82 82 81 80 77 77 75 76 76 76 77 68 63 61 54 54 71 87 90 86 86 82 78 80 83 80 75 79 69 41 32 30 26 34 49 54 48 40 42 56
60 61 65 64 54 48 46 40 39 45 57 54 51 57 58 58 61 60 59 60 53 52 50 44 43 42 45 47 49 48 52 57 53 51 50 56 61 63 68 70 70 74 78 83 83 83 88 88 90 94 92 91 88 85 85 84 84 83 81 80 80 80 81 81 82 80 79 76 67 62 58 54 58 75 88 89 86 87 85 81 81 74 67 52 50 64 50 32 31 29 34 47 50 50 49 48 60
56 58 58 57 48 46 46 42 45 47 58 61 56 59 58 60 61 58 62 64 56 52 48 41 36 40 49 47 48 50 52 55 52 52 54 59 62 61 67 68 69 75 79 83 84 85 89 91 93 94 95 94 86 86 89 86 84 83 81 80 82 84 84 84 85 83 82 75 66 60 55 54 58 69 81 89 87 87 87 85 85 72 59 44 35 48 51 37 35 39 39 47 51 49 51 53 62
56 56 46 45 40 39 41 43 50 50 57 61 59 61 60 61 61 60 62 63 59 51 44 38 36 45 51 45 50 56 57 57 55 57 59 62 63 62 64 66 68 75 80 82 83 86 87 88 94 93 93 96 92 91 92 85 80 80 81 83 85 86 86 86 86 84 81 75 67 59 54 54 56 58 69 82 84 87 87 87 88 73 54 54 58 49 44 47 51 59 50 47 56 51 50 53 58
55 53 42 37 33 35 39 43 49 53 59 61 60 63 62 60 61 62 59 60 59 50 45 42 43 50 47 46 53 55 58 62 60 61 62 63 64 64 64 65 66 71 77 79 83 87 86 89 90 92 94 95 95 97 93 85 80 79 80 85 88 87 88 88 86 82 77 74 70 62 56 57 55 52 60 70 78 85 85 82 78 71 64 72 85 67 51 59 65 69 56 48 56 54 54 53 54
47 43 38 32 28 32 35 40 45 51 56 59 61 63 64 61 60 61 58 61 60 53 50 46 44 46 45 48 53 52 58 63 61 62 62 62 63 64 64 65 66 69 73 76 85 87 90 94 90 92 96 94 93 93 92 89 85 85 83 85 88 86 89 89 86 80 73 72 71 65 60 61 57 52 57 67 78 82 77 73 69 72 80 81 83 76 66 68 72 71 57 53 58 57 58 54 53
37 31 34 30 26 29 33 38 43 48 51 54 56 59 62 59 59 59 57 60 58 52 51 51 45 43 46 49 53 56 61 61 59 61 62 62 62 62 62 65 66 68 71 76 85 87 88 89 90 90 88 93 93 87 89 89 87 90 88 87 86 85 88 89 86 80 74 71 69 66 65 65 61 53 57 68 74 74 71 71 69 69 77 83 77 68 65 65 68 71 60 59 63 57 58 56 55
29 25 28 26 26 29 34 38 42 47 48 52 55 55 56 56 60 59 58 60 60 55 51 53 46 40 46 49 52 57 59 58 59 61 62 62 61 62 63 64 65 67 70 75 81 85 87 87 89 89 84 87 87 84 85 84 84 85 87 89 85 83 85 89 88 82 79 73 67 65 64 66 60 54 58 66 66 63 65 63 63 64 67 77 72 55 52 56 55 59 57 61 67 59 57 57 56
24 25 23 22 28 31 33 36 42 45 42 50 55 55 52 53 57 55 57 60 62 61 54 49 42 42 50 51 52 52 55 57 60 63 62 62 62 63 63 64 65 67 69 72 76 82 89 90 89 94 91 83 82 86 86 85 84 79 82 89 86 82 84 90 89 85 83 74 67 64 61 62 58 54 59 63 63 60 57 54 52 54 57 62 63 55 47 47 44 45 49 56 65 62 57 54 56
21 26 24 23 28 29 31 32 37 37 36 48 55 55 52 53 52 49 55 60 62 59 51 43 39 49 52 50 52 48 52 59 62 63 60 62 64 64 63 64 65 67 69 71 75 81 89 93 89 92 92 88 87 88 89 89 85 79 80 87 87 83 85 91 89 86 82 73 70 70 63 61 59 58 59 60 63 61 53 53 50 44 46 46 53 64 55 47 43 43 47 53 59 60 56 52 53
21 25 25 22 25 26 29 32 35 33 34 47 54 54 54 53 49 48 53 58 60 51 45 44 43 53 52 49 51 45 52 60 61 62 60 61 63 65 65 65 65 67 69 70 75 80 87 93 90 90 90 90 91 87 89 87 81 81 82 86 87 83 84 87 88 85 81 78 77 76 69 64 63 61 59 60 63 61 52 50 49 41 40 39 47 60 59 53 48 45 48 52 55 55 54 50 50
20 24 22 18 23 24 27 32 35 33 34 47 54 53 55 52 47 50 51 48 53 48 45 49 47 51 51 48 45 44 55 61 61 61 60 62 63 65 66 66 66 66 68 70 75 80 83 86 89 88 82 83 86 84 84 81 76 80 83 86 87 84 83 83 83 81 80 84 83 79 72 65 68 67 61 63 62 58 52 46 48 44 38 40 48 54 54 54 52 47 49 52 54 53 51 51 52
20 23 18 16 22 23 28 31 31 32 35 47 53 51 53 53 48 47 44 43 49 49 47 49 49 50 51 48 44 49 60 62 63 62 60 62 61 62 64 65 66 67 69 70 74 78 80 81 87 87 77 77 79 79 80 77 75 78 84 87 85 83 81 80 78 74 77 84 83 77 73 68 73 73 63 63 62 58 55 46 47 51 46 43 50 58 56 54 52 49 49 52 56 54 49 58 66
21 18 14 18 21 22 29 32 30 32 35 44 51 50 50 52 49 43 43 47 48 49 51 51 54 53 49 49 48 54 60 62 63 60 58 58 57 57 59 62 65 67 68 71 74 76 78 79 87 88 83 83 81 82 82 79 79 80 83 86 87 88 83 78 75 74 77 86 86 80 82 80 77 76 65 61 61 59 58 49 48 56 55 56 63 66 62 58 55 51 53 56 58 55 54 67 75
19 15 14 19 21 22 29 33 35 37 37 43 49 50 49 48 46 43 46 50 48 52 57 55 58 56 48 50 52 55 57 60 61 56 54 54 52 52 54 58 62 64 65 68 71 75 79 79 81 84 86 90 88 88 84 79 82 81 83 90 92 95 93 88 88 88 89 94 94 89 95 91 77 77 69 61 61 58 56 51 51 52 51 64 75 70 65 67 62 54 54 55 57 58 63 70 66
16 14 15 18 20 22 28 35 40 42 42 45 48 49 50 48 43 42 45 49 48 53 55 54 62 60 50 48 50 52 53 55 57 54 52 51 51 50 51 54 57 60 62 64 67 72 78 80 79 82 88 91 88 88 86 83 83 80 83 90 88 91 97 97 98 99 98 99 98 97 102 91 76 80 74 64 67 65 61 57 55 53 49 62 73 70 68 69 68 64 58 57 66 70 68 66 61
15 14 16 17 18 21 27 35 39 42 44 45 46 49 51 48 44 41 43 47 46 47 47 49 58 57 48 46 47 50 50 51 54 52 51 51 50 49 50 52 53 56 59 61 66 68 73 78 80 84 89 89 87 86 84 84 86 83 83 86 87 90 93 94 94 97 99 97 97 100 100 89 80 88 87 78 80 78 74 72 70 68 64 67 72 75 79 78 79 81 75 71 76 74 67 63 63
15 14 16 16 16 20 25 32 40 43 46 47 46 48 48 47 46 40 39 43 39 38 38 41 49 50 44 43 44 46 47 49 52 52 52 52 51 50 50 51 52 55 58 61 64 67 69 74 78 82 87 88 88 86 83 83 85 85 85 88 92 91 90 90 87 88 93 94 95 94 90 91 91 96 97 92 91 88 88 87 85 87 81 78 81 82 87 91 88 86 83 79 74 68 65 67 70
16 13 16 17 15 20 22 34 47 43 44 49 48 46 43 45 45 40 39 39 35 33 33 36 42 43 42 42 42 42 43 45 48 51 53 52 52 52 51 51 52 54 58 61 62 66 67 70 75 78 82 86 90 88 86 85 85 83 83 88 89 86 87 89 85 82 89 96 97 86 81 95 99 98 101 98 93 90 94 93 90 94 88 85 92 90 88 92 90 87 83 79 74 66 63 68 73
15 12 16 18 17 20 22 35 47 42 43 49 48 46 45 45 42 38 38 35 33 33 33 35 38 40 41 41 40 40 41 43 48 52 53 55 55 56 55 53 52 54 58 60 61 64 66 68 73 77 79 85 88 88 88 85 86 85 84 87 86 84 84 83 82 85 91 97 99 88 84 96 96 96 100 97 95 92 95 95 92 93 86 83 91 93 90 90 90 90 87 81 77 71 67 68 66
13 10 14 19 19 21 26 34 44 46 48 52 49 45 47 45 40 38 35 29 31 34 32 34 38 40 40 41 41 41 42 44 49 55 57 59 60 61 62 57 54 55 57 59 61 62 64 66 71 75 77 82 84 86 87 84 84 85 85 87 86 88 85 79 81 88 92 95 101 96 90 92 90 94 97 92 94 94 92 91 88 85 83 86 94 98 95 92 89 91 91 86 83 78 72 71 66
10 10 12 20 22 25 29 33 43 48 48 52 50 46 47 44 39 38 32 27 31 33 33 35 39 42 41 42 42 41 42 45 51 57 60 62 63 64 65 62 59 57 56 57 60 61 64 67 68 71 74 78 80 81 84 83 84 86 86 88 87 90 88 84 87 88 90 94 100 99 92 92 91 93 95 93 93 93 91 87 84 86 89 93 98 99 99 96 89 90 95 88 83 78 69 72 71
9 11 14 21 25 28 32 32 38 43 46 51 48 44 46 46 41 35 30 29 31 33 34 37 40 43 43 44 42 41 42 46 52 57 60 61 61 64 65 65 65 64 63 60 60 62 64 66 67 69 71 76 78 78 81 83 85 86 86 89 88 90 89 88 91 90 87 91 98 99 94 94 92 88 91 95 96 95 96 89 85 92 96 97 96 91 93 98 94 94 99 90 83 79 72 77 76
11 14 17 22 24 29 34 35 37 39 43 48 46 44 47 50 44 34 30 29 30 33 35 38 40 42 43 44 42 42 42 46 53 54 58 59 57 60 63 67 70 72 74 68 64 65 65 65 67 69 71 76 79 77 80 83 85 86 86 88 86 87 88 86 88 88 86 90 98 97 93 95 94 90 89 92 95 97 99 93 89 92 93 98 98 88 86 93 96 96 98 94 86 83 80 79 77
14 14 16 21 25 32 38 39 40 38 41 46 46 44 43 48 43 33 30 28 29 32 34 37 40 41 43 43 43 43 42 46 51 51 55 58 56 59 62 67 72 75 79 78 74 72 70 68 66 69 70 74 79 77 77 80 82 83 85 86 84 83 84 84 83 82 83 89 97 95 92 96 97 95 93 92 92 95 97 93 94 95 94 99 99 95 90 88 93 93 94 96 89 87 85 80 77
14 12 11 14 18 30 38 41 42 40 45 50 45 31 24 32 35 31 31 30 31 31 34 35 38 40 40 43 44 42 44 45 47 48 52 58 58 60 62 67 73 73 73 79 81 76 74 73 69 69 71 72 76 77 75 77 80 81 82 83 82 83 82 81 80 79 84 90 95 97 94 94 94 92 92 92 92 96 98 94 96 99 96 96 97 98 95 91 93 91 90 95 93 90 85 77 74
10 10 10 9 11 20 30 36 38 40 46 50 41 23 15 22 28 33 36 34 32 31 31 33 38 41 39 43 44 41 44 45 45 46 50 57 58 58 62 67 72 70 68 76 81 76 72 73 72 71 71 71 74 77 75 76 80 78 79 80 80 84 81 77 76 75 84 89 92 98 98 96 95 91 90 92 93 96 98 95 96 98 95 95 96 97 96 93 95 93 90 92 92 89 81 74 70
7 9 10 8 8 14 22 29 33 38 43 43 37 22 14 19 24 35 42 36 30 29 28 31 38 41 39 42 41 40 42 43 45 45 47 55 57 56 60 66 72 72 69 74 78 75 69 69 74 73 72 73 74 77 77 78 82 80 79 80 81 86 82 76 75 75 81 85 88 96 100 100 99 95 94 96 96 95 94 95 97 96 94 95 94 93 92 92 92 92 93 91 87 81 73 69 65
7 8 8 9 8 9 17 28 33 36 39 40 37 25 15 19 26 35 42 34 27 28 26 30 38 38 37 38 37 37 39 40 44 45 46 51 54 55 57 64 73 75 72 72 73 72 68 67 74 74 71 76 77 77 79 80 83 84 84 84 84 86 82 77 78 81 86 87 89 95 99 100 98 97 97 97 95 94 94 96 97 93 90 90 90 89 87 87 85 84 88 89 81 73 66 61 60
7 8 7 9 9 8 12 24 33 34 36 37 36 29 19 18 23 32 38 32 25 27 25 29 36 37 36 36 35 36 38 39 40 44 47 48 52 55 55 61 70 75 74 73 72 69 66 65 71 74 72 76 80 80 82 82 84 87 87 87 88 87 83 78 78 84 90 93 95 98 100 100 99 99 98 95 94 96 98 96 93 90 89 90 89 85 80 79 79 77 81 83 77 71 64 58 56
8 8 8 8 9 9 8 15 23 26 31 32 30 29 21 15 17 25 35 33 27 27 25 27 33 35 35 36 35 35 36 37 37 41 44 45 50 53 54 58 63 69 71 71 72 69 66 65 68 74 76 76 81 85 85 83 84 88 90 89 89 88 84 81 82 87 93 96 98 99 100 99 98 100 98 96 96 98 100 97 95 92 91 89 84 78 76 77 78 78 78 78 75 72 68 61 58
8 7 8 8 7 8 8 11 15 19 26 26 23 22 18 14 13 20 31 34 32 29 27 29 31 32 35 37 37 37 36 37 38 40 41 42 46 51 54 56 58 61 64 66 69 69 69 68 68 74 79 78 81 87 87 84 84 87 91 91 88 86 84 84 86 89 94 98 98 100 100 95 95 100 100 99 98 97 96 95 97 93 86 82 78 78 81 80 80 80 76 75 75 73 71 67 62
8 7 7 7 6 7 8 13 19 26 26 20 21 19 15 14 12 18 29 35 36 34 32 33 33 32 37 40 39 38 38 37 41 44 45 44 46 52 56 57 58 58 59 62 64 67 69 68 68 73 80 81 81 85 87 86 85 85 89 88 81 78 79 83 85 86 94 99 99 99 97 93 95 100 100 98 97 94 92 95 97 91 83 80 81 81 79 75 76 77 74 74 73 68 66 64 59
7 7 7 6 6 6 10 16 22 31 27 18 23 21 15 15 13 18 28 33 32 31 32 35 35 35 38 42 41 39 38 38 44 49 50 50 50 55 58 58 59 56 56 59 61 64 67 66 67 71 78 82 81 82 85 86 84 82 82 81 73 68 72 82 84 83 91 97 97 96 94 94 95 98 100 97 96 96 94 96 96 90 86 86 86 81 76 75 77 75 74 73 70 65 61 57 55
7 7 6 6 6 5 13 25 28 30 24 15 22 20 12 14 16 22 28 28 28 32 35 34 35 37 39 42 41 39 39 40 46 51 52 53 54 57 59 58 58 57 54 55 59 63 65 65 66 70 75 79 79 78 80 81 81 80 79 77 70 62 65 76 80 81 88 93 93 94 96 96 94 96 99 96 96 97 94 94 92 88 88 88 87 82 78 79 79 75 73 71 67 64 60 55 56
7 6 6 6 6 4 10 23 28 30 26 19 23 19 10 12 17 25 29 29 34 41 43 37 35 40 41 41 39 38 38 41 45 47 50 54 56 59 59 57 58 59 56 53 55 60 63 65 66 70 73 77 79 79 80 78 80 83 82 79 76 71 71 76 79 81 86 93 92 92 96 99 97 96 96 95 95 95 92 92 88 84 87 89 86 82 78 78 78 75 72 70 67 61 57 55 56
7 6 6 5 5 4 5 9 15 25 30 27 23 15 9 10 13 21 29 34 39 45 46 42 39 41 43 41 39 40 40 42 45 44 47 52 56 58 58 58 59 59 58 54 52 55 60 63 65 71 75 77 78 80 84 83 83 87 87 86 86 85 82 79 79 77 80 91 93 92 96 100 99 94 92 94 95 93 92 91 87 82 84 88 86 81 75 74 75 73 71 72 68 59 52 52 53
6 5 6 5 4 4 4 4 5 13 20 22 17 10 9 9 9 16 23 28 36 42 42 41 42 44 44 42 39 42 44 45 45 42 42 47 52 56 58 59 59 59 58 55 53 54 56 60 64 71 77 78 77 80 88 89 86 88 90 90 88 87 86 80 74 69 70 82 87 89 96 99 98 93 91 94 93 93 94 92 89 83 83 86 85 80 72 71 72 70 71 73 67 60 55 52 52
6 5 4 4 4 4 4 4 5 6 10 16 15 11 10 9 10 17 21 22 27 31 31 35 44 45 39 37 37 42 47 47 46 44 42 43 47 52 57 58 58 58 58 57 57 57 58 60 65 71 77 78 75 78 88 91 87 88 88 86 83 82 81 77 73 66 64 73 79 84 91 95 95 92 92 93 91 92 94 93 91 87 84 84 83 80 72 69 69 67 70 71 64 64 65 56 50
5 5 4 4 4 4 4 3 5 6 7 12 14 11 10 9 13 21 22 19 18 19 20 26 39 40 33 33 35 39 45 45 44 44 43 44 45 48 54 57 56 55 58 60 62 64 64 65 68 73 78 79 77 78 87 92 87 87 88 84 79 76 72 70 73 71 66 70 76 81 86 89 90 91 92 92 92 93 93 93 91 88 86 83 82 80 72 67 66 66 72 73 67 68 72 64 55
5 5 4 5 4 4 4 3 4 6 6 9 11 11 10 9 14 20 19 17 16 17 18 21 31 34 31 32 32 34 41 43 43 43 44 46 46 48 52 56 57 56 59 64 67 70 70 71 74 77 79 81 80 80 87 91 87 88 90 86 82 79 72 68 69 73 74 73 75 79 85 90 90 92 92 91 92 93 92 90 90 89 87 83 81 77 72 67 66 69 75 76 72 71 71 69 66
5 5 5 5 5 4 5 4 4 6 8 9 8 9 9 8 10 14 14 16 17 16 17 22 28 30 28 29 29 31 37 42 45 45 46 49 50 52 55 58 61 60 63 68 71 73 74 75 79 81 82 83 84 86 91 93 91 92 93 90 89 86 80 76 75 79 82 79 76 76 82 89 92 92 91 89 91 93 91 88 87 87 86 83 80 76 72 70 69 74 77 74 73 73 71 70 71
5 6 5 4 5 5 5 6 7 8 9 10 8 8 9 10 10 10 13 19 19 16 18 22 24 25 26 27 25 26 33 42 49 50 51 53 56 59 60 62 65 65 68 71 73 74 75 77 80 83 84 84 88 91 92 93 94 97 96 95 94 91 87 86 86 88 88 85 80 75 74 81 89 92 90 90 93 94 92 88 84 82 81 81 80 77 73 71 70 72 73 73 74 74 72 71 69
5 5 4 4 5 6 7 8 10 10 10 12 10 9 10 10 11 11 13 19 19 17 19 21 23 25 27 26 26 27 30 38 49 54 56 57 59 62 62 63 67 70 72 73 74 74 75 77 79 82 84 86 88 87 82 80 83 88 93 96 96 92 91 91 90 91 90 88 85 80 78 80 86 91 89 87 91 93 93 88 81 77 78 80 80 78 75 71 69 67 69 72 74 75 74 73 70
5 5 5 6 7 9 9 9 10 9 10 11 11 14 14 11 11 12 13 16 19 20 20 21 23 26 26 26 29 31 29 33 42 49 54 58 60 61 63 66 70 73 74 75 75 74 74 77 79 81 85 87 84 78 73 71 73 77 82 89 89 79 78 86 91 92 90 89 89 86 86 84 84 89 87 83 87 89 88 85 80 77 79 80 80 81 79 77 74 68 68 70 70 73 75 73 72
5 4 5 7 8 10 11 10 10 9 9 10 13 16 14 10 10 12 14 15 17 22 23 23 27 29 28 24 25 29 32 34 39 43 47 54 59 60 63 68 70 72 73 75 76 75 75 76 77 79 83 87 84 77 77 73 70 73 76 82 82 72 73 86 94 92 87 88 91 88 89 86 82 85 84 82 84 82 78 79 79 79 81 82 84 85 84 85 82 74 70 69 66 69 72 72 71
4 3 4 6 6 8 10 9 9 9 9 11 14 15 12 12 13 12 14 15 17 21 23 26 31 32 30 26 24 28 33 36 40 45 48 52 57 61 63 67 70 72 73 74 76 77 76 72 73 76 77 85 87 82 86 83 73 76 82 82 80 81 87 94 97 94 85 84 87 86 89 86 78 81 84 83 83 80 76 76 78 79 82 85 87 87 84 84 85 79 74 72 67 66 69 71 70
5 3 4 5 5 6 8 8 9 8 9 11 13 12 9 11 13 12 14 17 19 22 24 28 30 28 26 28 29 30 34 38 39 44 49 52 56 59 62 65 68 72 73 73 76 76 74 69 71 74 75 84 91 86 87 89 84 88 92 87 85 91 96 94 94 96 90 87 85 81 86 85 77 78 85 86 84 81 77 76 77 77 82 85 84 83 80 78 82 79 76 76 72 67 68 70 68
5 4 5 5 5 6 7 9 10 8 10 12 11 10 8 10 14 15 16 19 21 22 22 22 22 23 27 31 35 36 38 41 41 43 48 51 53 55 58 62 64 68 70 73 77 75 72 69 69 75 79 85 92 90 87 89 91 93 93 93 95 97 94 88 91 97 91 85 83 85 90 90 83 81 85 88 86 82 77 77 78 76 79 80 77 77 74 72 78 77 73 78 75 68 68 69 67
6 5 6 6 6 6 7 10 11 10 11 11 11 10 8 13 21 21 16 17 18 18 20 22 22 28 33 32 37 41 42 44 44 44 46 48 51 52 55 58 61 67 70 73 79 78 72 69 68 74 81 85 88 90 88 87 87 87 88 93 95 93 92 91 95 96 86 78 82 90 92 88 85 85 86 87 88 85 82 81 80 77 77 77 72 71 70 69 76 75 70 75 75 70 69 68 66
7 7 6 6 8 9 9 10 10 12 11 10 12 11 11 22 31 29 25 24 23 21 25 29 29 34 38 35 37 42 43 44 42 42 43 44 46 49 54 57 60 68 71 73 80 80 73 69 68 72 79 84 87 88 87 86 85 85 85 87 90 93 95 98 101 94 81 79 85 86 84 83 86 88 86 86 86 84 85 84 82 79 76 74 71 69 68 70 74 71 68 69 71 72 72 70 67
8 8 7 7 9 9 10 9 9 11 10 12 13 11 21 39 42 38 40 39 36 32 33 36 37 39 42 42 43 44 46 47 42 39 41 43 45 49 56 59 62 68 70 71 76 78 75 70 67 71 78 84 88 88 91 92 90 90 89 89 93 97 99 100 101 89 74 75 80 79 82 88 90 87 83 84 86 84 84 85 81 78 74 71 71 69 67 71 73 69 66 64 64 70 73 71 67
9 9 8 9 9 9 10 9 9 10 11 14 13 13 31 48 46 46 50 48 44 40 39 45 47 47 48 49 51 51 48 46 42 38 40 45 47 50 56 62 66 70 70 69 70 72 74 71 64 65 74 83 86 87 91 93 93 93 91 92 96 99 101 99 94 86 76 74 75 77 87 93 91 88 82 82 87 85 85 86 79 73 70 69 71 70 67 69 73 71 68 64 63 68 72 69 65
10 10 9 11 10 10 13 12 12 11 11 14 13 18 41 51 46 50 54 51 49 46 46 52 54 55 55 55 56 57 53 46 40 38 40 47 51 52 57 63 67 70 71 71 70 67 68 71 65 61 67 77 81 82 87 92 97 98 93 94 98 99 98 94 90 88 82 77 74 76 88 93 91 89 84 83 87 85 84 86 79 72 70 70 73 74 70 68 71 72 70 65 62 67 73 70 64
Wind_Speed
8 7 6 4 3 2 2 3 1 3 2 5 5 4 3 3 4 4 6 4 3 4 2 1 1 1 1 2 4 4 4 6 6 3 4 6 12 15 12 16 20 20 19 18 20 21 20 20 19 21 25 26 24 21 20 20 19 18 18 19 19 20 19 19 18 16 14 13 11 11 11 9 10 12 14 16 16 15 14 14 14 14 14 14 14 14 13 13 14 13 12 13 14 14 18 19 19
7 6 5 3 4 3 1 2 1 3 4 6 5 5 5 3 3 4 6 3 3 4 3 2 3 4 1 4 4 2 4 7 7 6 7 11 15 14 14 17 19 21 19 17 19 20 19 19 19 20 23 25 24 21 20 19 18 18 19 19 19 19 19 19 18 16 14 13 12 11 11 9 10 12 15 17 16 15 14 14 15 14 14 14 14 13 13 14 14 13 10 10 14 16 18 17 16
5 5 4 3 5 4 1 3 2 2 4 6 5 5 4 4 5 5 6 4 5 4 3 4 3 5 4 3 2 1 2 6 7 8 9 14 13 12 16 17 18 20 19 17 19 19 18 19 19 19 21 22 22 22 20 19 19 19 19 19 19 19 19 19 18 16 14 13 12 11 11 9 10 13 16 16 15 15 14 14 14 13 14 13 13 13 14 15 15 14 9 9 14 17 16 15 14
5 5 4 4 5 4 3 3 1 1 4 6 5 5 4 5 6 6 6 4 5 5 4 6 4 4 4 3 2 2 2 5 6 7 8 11 11 15 18 17 18 19 18 17 18 18 18 19 20 20 21 21 21 21 19 19 19 19 19 18 18 18 19 19 18 16 14 13 12 11 10 10 10 13 15 15 14 14 14 14 14 13 13 12 12 12 14 16 16 14 10 9 13 14 13 13 12
5 5 5 5 3 1 3 1 1 2 5 4 5 6 5 6 7 6 6 4 4 4 4 6 5 5 3 3 3 2 4 5 6 7 9 11 14 19 19 17 18 17 17 17 17 17 17 21 20 20 21 21 21 20 19 19 19 19 18 18 18 18 19 18 17 16 15 14 13 12 10 10 11 12 14 13 13 13 13 13 13 13 12 12 11 11 13 14 14 13 11 11 13 12 12 11 12
6 4 5 6 3 2 2 1 3 6 6 5 5 6 5 6 6 6 6 4 4 3 4 4 3 7 5 4 2 3 4 2 5 7 9 14 16 20 19 18 17 16 16 16 17 15 17 21 20 20 20 19 20 20 19 18 18 18 18 18 17 18 18 17 16 15 15 14 14 12 11 11 11 12 12 12 12 12 12 12 12 11 11 11 10 10 11 12 12 11 11 11 12 12 11 11 10
5 3 4 5 2 2 1 4 5 6 5 6 6 6 5 6 4 5 6 5 5 4 4 3 4 6 5 4 3 5 4 2 6 8 11 15 18 19 19 17 16 16 15 16 16 14 19 22 20 20 20 19 19 19 19 18 18 17 17 17 17 17 17 17 16 15 15 14 14 13 12 12 11 11 12 11 11 11 11 10 10 10 10 10 9 8 10 10 9 8 10 11 11 11 11 10 10
6 4 2 3 1 2 2 6 5 5 5 4 5 5 5 6 4 4 5 3 3 5 4 4 3 2 4 3 2 5 3 4 8 11 14 17 18 18 18 17 16 17 15 15 15 15 20 21 20 20 19 18 19 18 19 18 18 17 17 17 17 17 16 16 15 15 15 14 14 14 13 12 11 11 11 11 10 10 9 9 8 8 9 9 8 7 8 8 7 6 8 9 9 10 10 9 8
7 5 3 2 1 3 4 5 5 6 6 4 5 5 4 4 3 2 3 3 2 4 4 4 0 0 6 7 5 5 5 7 11 15 16 17 18 17 16 15 16 17 16 14 14 16 18 19 21 21 18 18 18 17 17 17 17 17 17 16 16 16 16 15 15 16 15 15 14 14 13 13 11 10 10 10 10 10 9 8 7 6 6 7 6 6 6 6 5 5 6 7 8 9 9 8 7
6 4 2 2 1 3 4 5 5 5 6 4 4 5 4 4 3 2 2 4 3 3 4 1 1 3 7 7 7 5 7 11 14 16 16 17 17 15 15 14 15 16 16 15 15 16 16 17 20 19 18 17 18 17 16 16 16 16 17 16 16 16 15 15 15 15 16 15 14 13 13 12 11 10 10 9 9 10 9 7 6 5 4 5 5 5 5 4 4 5 6 6 7 8 8 6 6
3 2 2 1 2 5 5 5 5 5 6 3 5 5 3 3 3 3 1 3 2 2 4 1 2 7 6 7 6 6 9 12 14 16 16 16 16 15 14 14 14 15 15 16 16 17 16 17 17 18 19 18 19 19 17 17 17 16 16 16 16 16 15 14 14 15 15 15 14 14 13 12 11 10 9 9 9 10 9 8 6 4 3 3 2 3 3 3 3 3 5 6 5 6 6 5 5
3 1 3 2 5 5 4 5 6 4 5 4 6 5 3 4 3 3 2 3 1 1 4 1 3 5 5 7 6 8 11 11 13 15 16 15 15 14 14 14 13 13 14 16 17 17 17 17 16 17 19 18 20 20 18 18 18 17 16 16 16 16 15 14 14 15 15 15 14 14 13 12 11 10 9 8 9 10 10 10 8 5 1 0 0 1 1 2 2 3 3 4 4 5 5 5 4
3 4 3 4 4 4 3 4 4 1 5 4 5 5 3 4 2 2 2 3 2 1 3 1 4 3 3 7 6 9 10 11 13 14 15 14 14 13 13 14 13 13 14 15 16 17 17 17 16 16 17 18 19 20 19 18 18 18 17 15 15 16 15 14 14 15 15 15 15 14 13 12 11 10 10 9 9 9 10 11 11 9 6 3 2 2 2 0 1 3 3 2 3 4 4 4 4
3 3 3 3 2 3 3 3 3 2 6 5 5 5 3 2 2 2 2 4 3 2 4 2 3 2 4 7 5 7 10 13 14 14 14 13 13 13 13 13 13 13 14 14 15 15 16 15 16 16 17 17 18 19 18 19 18 17 16 15 14 15 15 15 15 15 15 16 16 14 13 12 11 11 11 10 9 10 10 10 11 11 10 6 4 4 3 2 0 1 2 1 1 3 4 4 4
3 2 2 2 3 4 4 4 3 3 6 5 5 5 3 4 1 2 2 2 4 2 3 3 2 1 3 4 5 8 12 16 16 14 14 13 13 12 12 12 13 13 13 14 14 14 14 14 15 15 16 17 17 16 16 16 16 16 16 14 13 14 15 15 15 15 15 15 15 15 13 12 11 12 12 11 10 11 11 10 11 12 12 11 7 6 5 3 2 1 1 1 0 1 2 4 4
2 3 2 4 5 4 4 3 1 2 6 6 5 4 4 6 1 2 2 1 4 4 2 4 2 2 1 1 5 13 16 17 16 15 15 14 14 12 13 12 12 12 12 13 13 13 13 14 13 12 14 14 13 12 13 14 15 16 15 14 13 14 15 16 15 15 16 15 15 15 14 13 12 13 13 12 12 11 12 12 11 12 13 13 11 8 6 4 3 3 3 3 2 2 2 4 5
3 4 1 6 5 6 5 5 4 3 6 6 6 4 3 6 3 2 3 1 3 5 3 4 3 3 2 2 9 17 17 17 16 16 16 15 14 13 13 12 12 12 12 13 13 14 14 15 14 14 16 15 13 13 13 15 16 17 15 14 15 15 15 15 15 15 15 15 15 16 16 15 14 15 15 14 13 12 13 13 11 12 13 13 13 10 7 6 6 4 4 4 3 3 3 4 6
3 1 5 6 6 7 5 6 6 3 5 6 5 3 1 5 5 4 4 3 3 5 4 4 4 3 4 8 14 18 17 17 16 16 16 15 14 14 13 13 13 13 13 13 14 15 15 16 16 16 18 17 17 17 16 18 18 18 16 15 15 15 16 16 15 15 16 16 16 17 16 17 17 16 17 16 15 15 13 12 13 14 13 13 13 10 7 7 7 6 5 5 4 4 4 3 5
3 3 6 6 6 7 4 5 5 3 5 6 5 3 1 4 4 4 3 3 5 5 5 5 6 6 8 12 15 17 17 17 16 16 16 15 14 14 14 14 14 14 14 14 14 15 16 16 16 16 17 18 18 16 17 18 19 20 18 16 16 16 16 16 16 16 17 15 16 17 15 17 18 17 18 18 17 17 16 15 16 16 16 15 12 10 8 8 8 8 7 6 5 4 3 2 4
2 3 5 7 4 5 5 3 3 3 3 4 5 4 2 2 2 3 1 2 5 4 5 6 7 8 10 13 15 16 17 16 16 16 15 14 14 14 14 14 14 14 14 14 14 15 16 16 16 16 17 19 18 15 15 16 17 20 20 19 20 19 17 15 16 16 17 16 15 16 15 17 20 17 18 19 18 18 18 18 17 17 18 16 14 11 10 10 9 8 8 6 5 5 4 4 4
2 3 6 6 2 4 7 3 3 1 1 2 5 4 3 4 3 3 2 2 3 3 4 6 7 10 11 14 15 16 17 16 15 15 14 14 12 12 12 12 13 13 13 14 14 15 16 16 16 17 17 19 21 18 16 17 17 19 20 20 21 22 19 16 16 16 16 18 17 16 16 18 19 16 16 18 18 18 18 16 16 17 18 18 16 12 10 10 10 8 7 6 7 7 6 5 4
1 5 6 4 1 4 7 4 3 2 0 2 4 2 3 4 4 3 3 1 3 4 3 6 8 10 12 14 15 15 16 16 15 14 14 13 12 11 11 11 11 12 12 12 13 14 15 15 15 17 17 18 20 18 16 17 18 18 19 19 20 20 19 16 16 16 15 19 20 20 20 18 17 14 14 17 17 17 16 14 13 14 16 17 14 12 11 10 9 8 7 8 8 8 7 5 4
1 6 6 3 2 4 6 5 3 1 1 2 2 2 1 3 3 3 3 2 3 5 3 5 10 11 12 14 15 14 15 15 15 15 14 13 12 11 10 11 11 11 11 11 12 12 14 15 14 15 16 17 18 17 15 16 16 17 17 16 17 16 16 15 15 16 15 17 20 23 22 18 16 14 14 15 17 17 15 13 12 13 17 16 13 11 11 10 9 8 8 9 9 9 8 6 5
3 5 7 4 3 4 5 5 3 2 1 2 1 0 1 2 1 1 3 3 4 3 4 6 10 12 12 14 14 13 14 14 14 14 13 12 11 10 9 9 10 10 10 10 10 11 13 14 14 14 14 15 16 16 15 14 15 15 15 15 15 14 14 14 14 15 15 15 18 22 22 20 18 16 14 15 16 16 14 12 14 15 18 18 15 12 11 10 10 9 9 9 9 9 9 8 8
3 5 6 4 4 4 4 4 3 2 1 2 2 2 1 3 4 4 4 2 6 5 4 7 10 11 11 12 13 12 12 13 14 13 12 10 10 10 9 8 9 9 10 10 10 10 12 13 14 14 13 14 14 15 15 14 13 14 14 14 14 14 14 14 14 14 15 15 16 20 23 22 21 17 17 17 16 16 16 15 17 19 19 18 16 13 12 11 10 10 10 9 9 9 10 11 11
5 5 2 3 5 5 3 3 3 2 1 2 3 2 0 1 5 4 1 3 6 7 6 9 11 11 10 11 12 12 12 12 13 13 12 10 10 10 10 8 7 7 8 9 10 10 11 13 14 15 14 13 13 13 14 13 13 13 13 13 13 14 14 14 13 13 14 14 15 18 21 22 21 19 18 18 19 19 18 19 20 20 19 17 16 15 14 12 11 10 10 11 11 11 13 14 11
4 4 1 3 5 5 2 2 3 2 1 2 4 4 0 0 4 1 4 4 6 8 8 10 11 11 10 10 11 11 12 13 14 13 13 12 11 11 11 9 8 6 6 8 10 10 10 12 14 14 14 14 14 13 13 13 13 13 13 13 12 12 13 13 13 13 13 13 13 16 19 21 21 21 19 18 20 20 19 21 20 19 18 16 18 20 18 14 12 11 10 11 11 12 16 14 10
2 1 2 5 4 5 3 2 2 3 1 2 4 6 3 2 3 0 5 4 6 7 9 11 11 10 10 10 10 9 10 13 14 14 14 13 11 11 11 10 10 8 7 8 9 9 10 12 13 14 15 14 14 14 13 13 12 12 12 11 11 11 11 12 12 12 12 12 13 16 19 20 20 21 21 20 20 19 19 22 20 21 21 17 19 22 21 19 15 12 11 12 12 12 15 15 11
1 3 3 5 6 4 4 3 3 4 1 1 5 5 4 4 2 2 3 3 4 5 8 10 10 9 10 10 10 9 9 12 14 14 14 14 11 11 11 11 11 10 10 10 10 11 11 11 12 13 14 15 15 14 13 12 12 12 11 10 10 10 11 12 11 11 12 11 13 17 19 18 18 19 21 20 20 20 20 21 20 21 22 19 18 20 22 21 19 16 13 13 14 14 16 16 12
3 4 4 2 5 4 5 4 4 5 1 1 5 2 2 3 2 3 3 3 5 5 6 8 8 8 9 10 9 9 10 11 13 14 14 14 12 12 12 12 13 12 12 13 14 16 15 11 12 12 14 15 15 15 13 12 12 11 11 10 10 10 11 12 12 11 11 11 13 15 17 18 18 18 19 19 20 21 20 19 18 18 19 18 17 17 18 19 18 16 15 14 14 15 18 16 12
2 3 3 1 1 4 6 5 6 5 2 3 5 3 2 5 4 4 3 4 6 5 5 7 7 7 8 9 9 9 10 12 13 14 14 15 14 13 14 14 15 15 14 14 16 17 15 12 12 12 14 15 15 15 15 13 12 10 10 10 10 10 11 12 12 11 11 11 12 13 15 16 17 17 17 18 20 20 19 18 16 16 16 15 15 15 14 14 13 13 15 15 16 17 16 13 11
1 3 2 1 3 4 7 4 4 3 3 6 7 3 1 4 5 5 5 7 7 5 5 7 8 8 8 8 9 9 10 12 14 14 14 16 15 14 14 15 16 17 16 15 15 14 13 13 12 13 14 15 15 16 15 14 12 11 10 10 10 11 11 12 12 11 11 11 12 12 13 13 15 15 15 17 18 19 19 17 15 15 16 15 14 14 12 11 12 13 15 16 17 17 15 12 11
2 3 2 3 4 2 4 5 3 1 3 7 8 4 3 2 5 6 6 7 7 6 5 7 8 8 8 8 8 8 8 10 12 14 15 15 16 15 15 15 16 17 16 15 14 14 14 13 14 14 14 15 16 15 15 14 13 12 11 11 11 11 11 11 11 11 11 12 12 12 12 13 13 14 14 15 16 17 18 17 16 16 16 14 13 12 12 13 13 14 16 18 18 15 13 12 11
1 2 2 2 4 4 1 4 5 2 4 5 7 7 7 2 5 5 6 6 6 5 5 7 8 8 8 7 7 8 8 9 10 13 15 15 15 15 15 14 15 16 16 15 15 14 14 13 14 14 14 15 15 15 15 14 13 12 12 12 12 12 12 11 11 10 11 11 11 11 12 12 12 12 12 13 15 16 17 18 18 17 16 16 15 14 14 15 15 14 15 17 16 12 11 11 11
3 4 3 2 3 3 3 3 3 2 5 5 6 7 8 6 4 5 6 6 5 5 4 5 7 8 8 7 7 7 8 8 9 11 14 14 14 14 14 14 15 15 16 16 16 15 14 14 14 14 14 15 15 15 14 13 13 13 13 12 12 12 12 11 10 9 10 10 11 11 12 12 11 10 11 12 15 16 16 17 18 17 17 17 16 16 15 15 15 15 15 14 13 10 10 9 9
6 6 5 5 5 3 4 4 4 2 5 6 6 7 8 8 5 3 5 5 5 5 4 4 6 7 7 7 7 7 8 8 7 9 11 13 14 14 14 14 15 15 16 16 17 17 16 15 14 14 15 15 15 15 14 14 13 13 13 13 13 13 12 11 10 10 10 11 11 11 11 10 10 10 10 11 15 17 16 17 17 16 16 16 15 15 17 17 17 16 15 13 12 11 10 9 9
7 6 5 5 5 3 5 4 3 3 5 3 2 7 9 9 7 3 4 5 4 5 6 5 5 6 7 8 8 8 8 6 6 8 10 11 12 13 14 14 15 16 16 16 17 18 18 17 16 16 16 16 15 15 15 15 14 14 14 15 14 13 12 11 10 10 11 10 10 11 10 9 9 10 11 12 15 16 16 16 15 15 15 14 14 15 16 16 16 15 14 13 13 12 11 11 11
6 6 6 5 4 3 6 4 2 0 4 0 1 7 9 8 7 3 3 5 5 5 6 6 7 7 7 8 9 8 7 6 6 8 9 11 12 14 14 14 15 16 17 17 18 19 19 19 18 17 16 16 17 17 16 16 16 14 13 14 13 12 11 12 12 12 13 11 10 10 9 8 9 11 12 12 13 16 15 15 14 14 14 14 14 14 13 13 14 14 13 13 12 12 11 12 12
7 5 5 4 3 2 4 4 2 2 3 2 3 7 7 6 5 2 2 3 3 2 3 5 6 7 7 7 8 8 8 7 8 9 10 12 13 14 14 14 15 17 17 18 18 19 19 19 19 18 17 17 17 18 18 17 16 15 13 12 11 10 10 11 11 11 12 10 9 8 8 9 9 10 11 12 14 17 16 15 14 13 14 14 13 13 13 13 14 14 14 13 12 12 11 11 13
7 5 5 4 3 3 0 3 2 3 3 4 5 7 6 4 3 1 3 3 2 3 4 5 6 6 6 6 6 7 8 8 9 9 9 11 12 14 14 14 15 16 17 17 18 19 19 20 20 19 19 18 17 18 19 17 14 13 12 10 9 9 7 8 8 9 9 9 9 8 9 10 10 10 11 12 14 16 16 16 14 13 13 13 13 13 14 14 14 14 14 13 13 13 12 12 13
7 6 7 6 4 4 4 3 2 4 4 3 6 6 3 2 2 2 4 4 4 4 6 6 6 5 5 5 5 6 6 6 7 8 8 10 12 13 14 14 15 15 16 17 18 18 18 19 20 20 19 18 17 17 18 16 13 13 12 10 10 9 7 8 10 10 10 11 11 10 10 10 11 11 11 12 12 13 15 14 12 12 14 14 13 13 14 14 14 14 14 14 13 13 13 13 13
6 7 7 6 5 5 5 5 5 5 3 2 4 5 1 2 2 0 3 3 4 5 6 7 6 6 5 5 5 5 5 6 7 7 7 8 11 12 13 14 15 15 15 15 16 16 16 16 18 19 18 17 17 17 17 17 15 14 14 13 12 11 11 12 12 11 12 13 12 10 10 10 10 11 11 13 13 12 13 14 12 12 13 14 13 12 13 14 14 14 14 14 14 12 11 12 13
5 2 3 2 4 5 6 6 6 5 2 2 2 5 3 2 1 2 1 1 5 3 2 5 6 6 5 4 3 4 5 6 6 7 7 7 9 10 12 13 14 14 13 13 13 14 15 14 16 17 17 16 16 17 18 18 17 16 17 16 15 14 13 12 12 11 10 10 9 8 10 9 10 11 13 14 14 13 14 14 14 13 12 13 13 13 13 13 13 14 13 13 13 11 10 11 13
3 5 3 1 3 6 6 7 6 4 4 2 5 4 5 3 2 4 2 4 9 5 3 2 3 5 4 2 3 3 4 4 4 4 5 6 7 8 9 10 11 12 11 11 12 12 13 13 14 15 16 15 16 16 18 19 18 17 17 16 15 15 14 12 10 10 9 8 8 9 9 9 10 11 13 15 14 14 14 15 15 14 13 13 13 13 14 13 13 13 13 13 12 11 10 10 10
1 6 3 3 3 6 6 7 7 3 5 5 4 3 5 4 2 4 3 5 5 3 1 2 2 6 6 4 4 3 2 2 2 2 2 3 4 5 6 7 8 9 9 10 10 10 11 12 13 14 15 14 15 16 17 18 18 17 17 17 16 14 12 10 10 10 10 9 9 9 9 8 9 10 12 14 14 15 15 15 16 16 14 13 13 13 13 13 13 13 13 13 12 12 11 9 7
3 4 2 2 3 5 5 6 6 3 6 6 0 2 6 4 1 3 5 3 2 4 4 2 2 7 8 6 5 5 5 3 2 2 2 2 2 2 3 4 6 6 7 7 8 8 9 11 12 14 15 13 12 12 13 14 15 15 14 14 13 12 12 10 9 9 9 10 11 11 10 9 10 11 12 13 14 16 17 16 16 17 16 14 13 13 13 13 13 12 12 13 13 12 11 10 8
1 2 5 6 6 5 4 4 4 5 6 2 2 2 6 3 1 2 3 0 1 3 5 5 4 9 8 7 7 7 6 5 4 3 3 3 3 2 3 4 5 5 5 6 7 7 9 11 12 14 14 11 8 9 10 10 12 13 12 11 10 11 13 10 6 7 9 10 11 11 11 11 11 11 12 14 15 16 18 18 17 16 16 14 13 13 13 14 13 13 13 12 13 13 12 11 10
4 6 6 6 6 4 5 4 3 7 4 2 3 1 5 5 1 3 3 2 0 2 4 5 7 9 8 8 8 8 7 7 6 5 4 4 4 3 3 3 4 4 4 5 6 7 9 11 12 12 10 9 8 10 12 13 14 14 14 13 10 8 9 10 9 10 11 10 11 13 12 11 11 11 12 14 15 17 18 18 16 15 15 14 14 13 13 13 13 13 13 13 13 13 13 11 10
6 6 5 6 5 4 5 5 4 5 1 4 2 1 4 4 2 4 1 2 1 0 2 5 7 8 8 8 9 8 7 7 7 6 5 4 3 4 3 2 2 2 3 3 5 6 8 9 9 9 8 9 12 14 14 14 14 14 14 14 13 10 8 9 11 13 11 12 13 13 12 11 11 12 13 13 14 16 17 17 16 15 14 14 13 12 11 11 12 13 13 13 14 14 14 12 11
8 6 5 5 5 5 6 4 4 4 1 5 2 2 5 3 3 3 3 2 2 2 3 4 6 7 7 8 8 8 9 8 7 6 6 5 4 4 3 3 2 1 1 3 5 6 6 6 6 8 9 12 15 15 13 13 15 15 14 13 14 14 10 7 11 13 11 12 16 14 9 9 8 10 13 13 13 15 15 15 16 15 14 13 13 11 11 11 11 12 13 13 14 14 14 13 12
6 3 4 5 4 4 5 4 3 3 0 3 2 2 4 2 3 1 2 2 3 4 6 6 6 6 6 7 8 9 9 9 8 7 7 6 5 5 4 3 3 2 2 3 4 5 5 5 6 10 12 13 14 14 12 13 16 16 16 15 12 10 9 7 8 11 10 10 14 16 13 9 7 4 8 10 11 13 13 14 16 16 14 13 13 12 12 11 11 12 12 12 13 13 14 14 13
3 2 5 4 3 2 4 4 4 5 4 1 2 3 3 1 3 2 1 2 5 6 7 7 7 7 7 8 9 9 9 8 8 7 7 7 6 6 5 4 4 3 2 3 4 4 4 6 7 10 12 11 11 13 12 13 13 13 14 16 13 8 7 7 6 7 8 10 12 14 12 11 10 6 5 7 9 11 12 13 15 16 16 14 14 14 14 13 12 12 12 12 13 13 14 14 14
2 4 4 2 3 4 5 3 2 4 6 2 1 4 2 2 2 4 4 4 5 6 8 7 6 7 8 9 9 8 9 9 8 7 7 6 6 6 6 5 4 3 2 3 3 3 4 6 7 7 9 9 9 10 10 11 12 11 11 12 10 7 6 6 5 4 6 9 12 12 9 10 11 9 8 8 8 10 11 13 14 16 17 16 16 15 15 14 13 13 14 13 14 14 14 14 14
3 3 1 4 1 4 5 4 3 5 6 3 2 5 4 1 2 5 7 6 4 5 8 7 5 7 8 8 9 8 9 8 8 8 7 6 7 6 6 6 4 3 2 2 2 2 3 5 6 6 7 8 8 8 8 9 9 8 7 7 7 5 5 4 3 4 6 8 8 7 8 11 12 10 10 9 8 9 10 11 13 14 16 16 16 16 16 15 15 15 15 14 14 14 14 15 14
4 3 2 1 3 4 3 4 5 5 6 3 2 3 3 4 4 5 8 6 5 4 5 3 4 8 8 7 9 9 8 7 7 7 7 6 7 7 6 5 4 3 1 0 1 1 3 4 5 5 5 6 7 7 7 8 8 6 5 5 5 5 4 3 4 6 7 8 8 6 9 14 14 11 11 10 9 9 9 11 12 13 15 16 16 16 16 16 16 16 16 16 16 16 16 16 15
1 2 2 2 4 4 2 3 4 5 6 4 2 2 1 5 6 8 10 9 8 6 4 4 7 9 8 7 8 7 7 7 6 7 7 6 7 7 5 4 3 2 1 1 1 1 2 4 5 5 5 5 6 7 7 7 7 5 4 3 3 3 3 4 6 8 7 7 9 9 10 12 12 12 11 9 9 10 11 11 12 13 14 15 16 16 16 16 16 16 16 17 16 17 17 17 17
3 4 3 1 1 3 3 3 3 5 6 5 5 4 2 6 6 8 10 9 9 8 6 7 9 9 9 8 8 7 7 7 7 7 7 7 6 5 4 3 2 2 1 1 1 1 2 4 4 4 5 5 5 6 6 6 6 5 4 3 2 2 4 7 9 9 9 8 10 11 10 9 11 13 13 11 11 12 13 13 12 12 13 14 15 16 16 16 16 16 16 16 16 17 18 18 18
4 3 3 3 3 4 5 4 3 4 6 5 6 4 4 6 5 7 8 8 9 9 8 9 10 10 10 9 9 8 7 6 7 8 7 7 6 5 3 2 1 1 1 2 1 1 2 3 4 3 3 4 4 4 4 5 4 3 4 4 4 5 8 10 10 11 12 12 12 13 11 9 11 14 15 13 12 12 13 13 12 12 12 13 13 14 15 15 16 16 17 17 16 17 18 18 18
Wind_Direction
156 160 163 172 177 200 211 239 212 187 197 86 92 99 83 48 88 121 121 134 136 139 148 57 164 196 292 332 352 4 5 20 22 16 66 100 135 139 138 139 141 145 146 143 145 147 149 147 145 147 151 158 161 162 161 161 160 157 154 152 152 151 153 154 153 147 140 136 131 132 131 125 116 110 111 113 114 114 113 112 109 109 109 106 104 102 100 99 95 92 92 82 75 71 63 58 54
163 164 174 191 194 225 192 202 225 150 136 92 94 96 110 130 131 119 115 122 92 121 170 151 177 201 269 322 313 331 28 41 44 60 86 125 134 132 137 142 144 145 145 143 145 148 150 149 149 149 151 154 157 164 164 160 158 155 153 153 152 151 153 154 154 150 144 141 136 136 133 128 122 115 114 115 116 116 117 115 112 114 112 110 110 109 108 102 94 88 90 87 74 66 60 54 49
181 175 190 208 205 227 255 213 241 122 115 98 98 99 132 145 120 102 102 103 97 130 161 146 186 195 221 286 304 327 58 61 67 84 110 137 136 135 141 143 144 144 144 144 147 149 149 150 150 149 151 151 152 162 162 157 156 153 153 152 150 149 152 155 155 153 148 146 142 140 137 134 129 121 119 118 120 121 122 119 117 117 114 114 115 116 113 102 98 91 89 91 75 64 58 51 51
196 205 216 228 214 213 245 221 314 36 84 93 105 113 143 121 110 106 106 113 123 149 149 154 162 161 226 298 16 333 76 75 77 94 128 143 137 140 143 142 144 144 144 144 148 149 152 154 150 148 151 150 151 158 158 156 154 151 152 150 149 148 151 155 155 155 151 148 146 145 143 141 136 128 124 123 124 124 125 124 121 120 118 118 119 121 114 107 105 92 86 93 78 64 55 53 57
212 231 230 243 249 228 275 242 34 40 60 67 109 123 136 116 121 122 116 126 140 154 153 167 148 144 207 359 359 318 75 84 95 107 132 130 130 141 142 143 145 146 145 143 148 149 155 159 150 149 151 151 151 153 156 157 154 150 151 150 149 148 151 154 155 156 154 152 150 150 149 146 141 132 126 125 126 125 125 126 124 123 123 119 120 124 117 113 107 92 91 95 85 74 60 59 64
225 236 224 237 276 338 293 139 76 71 49 20 91 117 127 120 129 128 123 133 146 154 168 192 146 152 158 75 38 9 46 82 119 126 129 126 135 142 140 144 146 147 148 143 147 147 157 162 154 151 151 152 152 150 157 159 154 151 152 152 150 151 152 153 155 157 157 155 154 154 153 148 142 134 127 126 127 125 125 125 125 126 126 118 118 126 123 118 108 93 88 86 85 83 72 66 66
244 242 210 222 235 247 318 77 65 74 54 15 69 101 116 122 128 134 134 139 149 153 187 191 140 152 130 115 102 43 32 76 120 133 128 131 140 142 141 146 145 146 149 146 146 147 160 164 157 155 152 152 153 152 159 160 155 154 154 155 154 155 155 155 157 158 160 159 158 158 156 151 145 140 131 128 129 125 123 123 124 127 128 119 115 121 122 119 111 92 81 85 89 90 82 73 66
251 256 231 227 179 161 65 70 60 61 74 49 67 82 103 125 133 144 140 138 148 152 176 151 141 165 112 132 103 65 66 88 112 124 126 134 141 143 143 144 145 146 148 148 145 150 163 163 159 161 157 154 154 156 160 160 158 158 158 159 159 159 159 160 161 162 163 162 162 162 159 153 147 145 139 133 130 125 120 120 123 128 128 121 113 114 115 112 112 96 81 85 87 87 83 75 69
240 245 257 246 104 101 84 83 82 72 85 87 84 90 107 133 148 147 138 120 124 146 144 129 168 330 114 116 98 99 97 100 117 124 130 137 140 143 143 145 146 146 147 148 147 150 159 161 163 165 163 161 158 159 161 160 159 160 162 162 162 162 163 163 165 165 166 165 164 164 162 154 148 148 143 136 130 126 121 118 119 120 116 113 111 113 118 110 104 99 87 83 80 81 78 71 66
237 230 284 277 98 90 86 78 86 87 86 83 94 107 116 145 169 156 138 118 133 149 108 76 226 110 113 107 101 108 105 116 125 128 135 138 141 143 141 145 146 148 148 148 147 148 155 161 165 167 169 169 166 165 162 162 162 162 165 165 166 167 167 167 169 170 169 168 166 168 166 157 152 150 142 133 128 124 117 111 105 102 94 95 105 107 111 106 101 100 93 86 80 80 73 62 55
248 199 274 303 53 59 61 66 77 87 90 97 108 109 119 147 173 152 130 112 149 166 110 248 163 119 112 98 92 97 113 128 128 130 138 140 143 142 139 143 147 151 151 150 147 148 157 164 166 169 174 175 173 171 167 168 167 166 168 168 170 170 171 172 173 174 174 173 170 173 173 165 159 154 145 134 131 128 122 115 102 89 77 80 101 109 96 79 72 80 90 86 78 78 72 60 47
296 343 277 41 46 50 52 60 67 77 100 113 111 109 130 146 173 154 132 106 154 166 122 193 128 128 127 104 96 114 130 135 129 133 139 142 144 143 141 142 147 151 153 152 147 149 155 161 167 170 176 179 177 177 176 175 173 173 172 173 175 173 176 175 176 178 177 177 176 180 179 173 168 161 155 149 147 144 142 143 134 124 136 265 348 160 107 68 32 16 62 82 80 76 68 56 39
318 335 316 52 36 46 64 72 69 101 108 92 98 106 140 154 160 132 119 108 129 122 97 110 134 146 114 101 110 130 138 134 133 139 139 143 144 145 145 143 148 150 154 154 150 151 153 159 168 168 173 176 177 179 178 177 179 180 176 176 178 177 178 177 180 182 181 182 182 185 185 182 176 170 170 171 166 158 160 160 152 153 175 211 293 280 253 177 28 355 15 66 83 74 53 39 28
326 334 329 65 73 55 50 73 72 59 89 83 94 110 142 128 94 119 148 124 102 63 74 97 139 145 119 119 138 142 140 137 140 143 143 143 142 146 147 146 150 151 155 157 155 156 154 159 167 169 170 172 175 179 178 178 181 182 180 180 181 180 179 179 183 185 187 189 188 188 190 190 183 183 185 184 180 171 173 170 162 169 181 193 253 270 256 247 239 343 352 25 72 62 35 19 11
319 313 305 63 83 66 41 49 59 45 77 92 100 116 136 88 66 154 163 118 97 83 96 121 109 47 149 151 162 150 140 142 145 145 145 143 143 147 146 149 154 156 159 159 161 160 159 163 165 170 175 175 176 176 175 180 182 182 182 184 185 183 184 185 185 187 190 193 193 190 190 191 190 196 197 193 189 180 180 180 173 178 190 202 226 248 250 250 215 219 255 238 258 34 13 5 354
308 277 273 65 57 56 51 40 52 57 72 90 106 134 139 102 108 142 107 7 108 139 150 138 123 14 124 179 145 142 140 143 147 145 146 144 145 147 148 155 158 162 165 163 166 163 166 173 169 176 188 186 180 177 174 178 185 185 184 188 190 190 192 190 189 190 191 195 196 194 195 194 193 201 203 200 196 189 188 187 185 188 197 209 220 232 239 243 227 214 222 229 256 272 330 2 348
264 264 19 65 54 54 42 23 32 49 76 98 121 151 136 107 127 124 134 260 117 144 146 115 93 25 57 97 127 136 140 144 148 149 149 150 151 153 156 162 163 167 172 172 173 168 171 175 171 180 192 192 190 186 180 182 188 187 185 191 195 196 198 194 194 196 194 197 199 199 203 202 200 204 205 203 200 196 193 190 192 196 200 212 220 224 225 231 233 222 224 234 255 280 334 359 342
260 299 54 57 49 55 27 23 44 45 88 102 119 146 115 106 133 147 158 182 157 149 136 112 99 82 101 116 129 138 145 148 154 158 158 160 161 161 163 167 170 172 175 179 179 173 172 172 173 178 182 187 192 190 186 188 191 191 190 193 199 201 202 199 197 199 198 198 200 200 202 205 207 210 208 206 206 201 197 197 199 202 205 214 219 219 221 226 228 220 219 227 243 279 337 346 317
293 20 63 57 37 56 37 28 48 30 68 101 121 141 121 90 125 167 172 152 168 165 150 149 130 126 127 131 138 145 152 155 163 169 167 170 168 167 167 169 174 176 177 181 182 177 174 175 178 179 177 182 188 190 192 193 194 195 190 189 200 203 201 201 198 197 197 196 198 198 199 205 209 214 213 212 216 211 207 211 211 213 217 220 220 218 225 229 228 225 220 228 249 281 306 284 279
328 4 62 65 34 70 74 50 53 25 54 119 124 140 155 112 138 183 199 141 171 183 169 171 152 147 147 146 149 152 159 162 171 177 175 177 174 171 172 171 175 180 180 180 183 182 178 179 182 181 180 182 184 189 196 196 200 202 194 193 202 205 201 201 200 197 196 195 194 196 200 207 210 216 219 216 220 221 219 222 223 225 226 226 225 224 233 240 239 236 231 237 256 266 262 260 276
344 8 49 65 23 74 88 87 83 49 329 113 124 151 160 144 182 200 209 180 161 161 177 182 164 161 159 155 158 160 163 166 177 184 180 182 181 177 176 175 178 179 180 181 183 187 185 183 183 182 184 187 185 189 197 197 201 204 202 200 202 206 203 202 204 200 200 201 197 199 203 210 213 214 219 217 218 222 224 226 225 227 228 227 228 228 231 239 237 232 230 235 244 248 251 258 269
4 53 47 58 10 64 92 100 98 109 262 138 137 134 118 151 200 214 232 279 80 83 143 173 164 167 165 161 163 165 167 169 179 185 182 185 185 183 180 177 179 177 180 184 184 189 190 187 187 185 188 191 189 192 199 199 200 203 203 200 199 203 203 202 206 205 207 207 205 208 209 211 213 212 215 215 215 218 220 222 221 223 228 227 227 228 224 227 227 225 226 230 240 247 252 257 261
338 68 53 51 45 58 94 107 116 149 172 147 97 56 100 192 202 184 238 279 89 79 79 148 162 167 166 164 168 169 170 172 177 182 183 186 186 187 186 180 182 180 181 188 186 187 192 192 192 191 192 194 193 195 199 202 205 206 206 205 206 208 204 204 208 210 211 207 210 215 212 209 209 210 212 215 217 219 218 220 221 224 230 226 219 222 224 224 225 228 229 234 245 252 254 253 253
318 49 58 71 78 58 89 112 131 150 108 81 47 295 258 288 336 119 241 229 151 129 91 139 159 164 165 167 173 173 172 173 175 179 181 185 188 188 190 189 186 183 183 190 189 187 193 196 194 195 197 197 199 199 201 206 208 210 211 210 213 215 210 210 212 212 212 208 210 215 213 211 212 212 213 217 221 222 221 219 221 228 233 227 219 222 225 225 226 229 232 238 246 251 255 252 249
345 18 54 99 110 78 98 122 130 133 89 94 224 243 1 319 316 303 272 168 145 162 137 146 157 163 169 171 176 176 175 175 172 178 181 183 189 188 193 199 191 186 187 190 193 193 193 196 197 199 199 200 203 203 205 209 210 212 213 213 214 214 213 216 216 212 214 211 209 215 217 217 219 219 220 223 224 225 227 224 226 233 234 226 220 221 222 223 227 231 234 236 243 250 255 252 248
9 351 33 124 118 95 119 147 147 157 123 163 243 266 75 310 293 279 276 95 136 160 151 148 157 166 172 174 178 178 177 178 175 179 181 182 188 190 194 198 193 188 188 188 192 197 194 196 199 200 202 202 204 206 208 210 212 212 211 213 214 212 213 215 216 215 218 217 213 218 222 221 220 222 224 225 227 229 230 228 229 234 232 222 219 221 221 223 227 233 237 238 246 255 252 251 246
352 329 74 115 123 113 135 180 159 188 162 185 264 284 239 58 283 231 100 105 142 152 148 150 162 169 171 175 181 184 181 179 180 182 182 185 188 193 195 193 194 186 183 191 192 197 197 198 200 201 203 203 206 208 210 212 212 213 211 212 213 212 213 213 215 217 221 221 218 220 223 224 223 227 229 228 229 228 227 230 229 228 228 223 224 226 224 225 226 229 238 242 246 251 249 246 238
328 271 160 119 137 129 143 185 161 212 177 164 259 277 245 192 254 2 87 121 151 151 149 154 167 167 169 178 180 187 187 180 182 185 185 190 190 193 196 192 193 182 182 196 193 197 198 199 202 202 204 205 209 211 211 215 215 216 213 213 215 213 211 214 218 219 223 224 223 227 228 228 228 230 232 233 234 229 226 231 228 228 231 227 228 232 231 230 229 229 239 245 241 243 244 242 233
197 234 226 142 165 146 141 165 163 223 189 134 254 262 219 192 196 116 105 155 167 160 153 157 168 167 171 177 179 188 190 183 186 191 191 194 192 191 196 192 188 182 189 199 194 198 201 201 202 203 206 206 210 214 214 218 219 218 217 217 217 215 215 219 222 223 225 223 226 234 235 233 231 231 233 234 236 233 229 231 229 230 233 229 229 234 234 233 234 232 234 242 241 236 233 233 230
203 229 272 178 182 146 142 161 167 208 145 137 263 293 125 141 147 130 121 171 187 174 161 164 167 169 176 176 183 188 189 191 192 196 193 193 195 192 196 193 185 185 192 197 199 203 202 200 202 202 207 207 209 214 214 217 219 219 218 220 218 216 220 223 226 225 220 218 224 232 236 237 235 235 238 238 238 233 226 224 223 224 227 226 225 226 227 229 232 229 226 231 233 226 224 226 224
240 227 246 257 334 104 136 161 174 192 132 176 249 303 86 109 114 119 134 189 203 193 175 170 168 174 179 178 189 189 190 198 198 199 193 192 198 195 198 197 190 190 192 196 202 205 202 198 200 202 207 208 209 211 213 215 216 217 217 219 218 217 222 225 228 224 217 220 223 225 228 231 232 236 241 243 241 230 217 213 214 218 218 213 213 215 217 219 218 217 218 221 222 219 219 220 215
255 265 221 74 3 89 121 141 191 207 131 187 233 294 71 122 108 100 145 190 204 210 190 174 176 181 183 183 192 193 191 199 202 203 197 194 200 200 200 200 198 197 196 199 204 205 205 203 201 205 209 209 209 210 212 212 212 215 215 215 217 216 221 225 227 226 224 226 225 224 223 222 228 234 236 235 231 219 209 208 209 213 209 203 207 205 201 206 209 212 215 215 215 213 210 206 204
169 294 335 46 350 13 108 124 156 217 155 192 226 279 315 153 133 114 142 181 199 214 203 183 185 186 189 190 193 198 195 196 202 205 203 200 201 204 203 201 202 204 204 204 206 209 211 209 207 210 211 209 210 209 208 209 208 211 211 213 216 216 220 224 224 223 224 226 225 224 224 228 233 233 231 230 224 216 211 209 207 207 201 197 201 195 194 203 207 209 210 211 211 206 201 196 193
125 318 327 46 351 334 17 107 118 183 211 216 222 243 288 264 163 158 160 183 208 221 212 187 188 193 193 196 199 200 200 202 203 204 206 205 204 207 206 203 203 206 209 209 211 215 216 215 212 213 213 209 209 207 205 207 206 207 210 212 214 216 221 224 223 220 220 223 224 222 223 233 239 233 230 228 221 215 210 205 202 198 193 194 195 191 196 203 204 206 206 207 207 200 197 192 187
340 336 324 344 333 318 345 38 85 201 236 240 230 236 273 276 223 199 183 194 218 225 225 195 192 197 194 200 206 204 207 210 209 207 209 209 208 209 209 208 207 207 210 211 213 217 219 219 216 214 214 210 206 203 202 204 206 207 208 211 215 218 221 223 222 221 223 225 224 225 228 237 242 234 227 221 212 206 202 202 199 191 190 194 193 190 195 200 201 206 206 202 199 197 195 192 186
323 322 312 319 313 319 23 30 39 344 263 240 246 260 277 284 277 226 187 191 211 219 229 211 198 201 196 203 209 209 217 217 211 213 213 213 212 211 211 211 211 211 212 211 212 214 216 218 216 214 213 209 204 201 200 202 205 205 207 211 214 217 219 221 221 225 230 229 228 231 235 239 238 227 217 210 206 201 199 203 198 189 189 191 192 194 196 197 197 200 202 195 192 193 192 192 187
303 295 282 295 296 329 50 44 33 344 279 245 243 279 288 287 287 264 177 177 206 225 228 220 212 208 199 205 212 213 221 220 209 212 214 213 212 211 212 213 213 214 213 211 211 211 213 215 215 213 211 207 201 198 199 201 203 204 207 211 213 214 216 217 219 225 229 228 231 239 240 232 220 215 213 208 207 202 199 205 198 186 189 192 195 200 197 194 191 192 195 192 190 189 187 190 186
278 281 283 283 283 343 59 49 28 334 268 294 100 284 285 280 288 296 177 198 227 235 230 222 218 214 204 206 214 215 219 213 199 204 207 209 210 210 211 213 215 217 216 212 212 211 211 213 214 213 210 206 203 201 201 203 205 206 206 209 214 215 210 212 219 221 222 228 239 245 242 228 209 205 210 208 206 203 200 203 198 187 190 193 197 200 195 190 188 189 189 189 191 189 188 188 181
263 264 273 278 311 355 93 99 97 177 265 327 0 304 290 281 293 311 196 226 243 237 240 235 224 217 207 207 213 214 214 208 203 206 206 208 209 210 213 216 217 219 220 217 214 211 210 212 213 212 210 208 207 204 202 205 207 205 207 209 214 218 207 206 226 230 220 221 229 232 230 225 213 205 209 207 202 201 199 199 196 189 190 192 195 194 189 188 189 190 190 189 189 188 189 186 180
248 258 270 280 342 328 259 106 130 201 265 311 324 305 291 278 257 167 146 184 187 187 213 230 232 226 215 212 214 216 214 211 213 214 210 208 209 209 212 216 217 218 220 219 215 211 209 210 210 209 209 209 209 205 204 206 205 199 202 206 208 220 208 189 219 240 224 211 212 215 218 216 213 214 212 207 201 198 198 197 194 189 189 191 194 192 187 188 189 190 192 191 189 186 185 182 182
230 242 270 291 329 324 324 6 302 222 205 262 294 285 282 314 270 161 132 155 167 170 194 210 216 217 219 221 219 219 223 222 223 224 216 210 210 211 212 214 216 217 218 218 216 211 209 209 207 205 206 207 208 207 204 203 200 195 196 199 201 210 210 193 208 226 223 220 216 207 208 208 208 212 207 200 199 197 196 197 195 191 190 191 192 193 190 187 188 192 193 194 194 191 184 177 180
236 219 242 289 321 321 313 320 301 257 195 132 310 295 356 38 308 202 120 150 151 159 185 190 185 188 200 213 212 210 220 227 230 234 231 220 216 214 212 212 215 218 219 219 218 214 211 208 205 203 203 206 208 207 203 200 199 197 194 197 198 198 205 206 209 218 219 223 225 209 202 201 202 204 200 197 196 195 195 194 195 196 194 192 192 194 193 187 188 193 193 194 196 195 186 178 179
259 153 163 279 309 302 302 307 296 289 323 74 274 295 328 349 328 84 61 63 90 95 175 156 158 175 188 198 195 197 209 221 231 239 241 231 223 218 214 214 216 219 220 217 217 217 214 209 204 202 203 205 208 207 205 202 201 201 200 203 205 201 206 208 207 216 218 217 222 213 200 197 203 204 200 199 196 193 194 191 193 199 199 195 192 194 194 189 189 191 191 194 192 190 189 184 182
276 71 71 295 292 294 305 301 282 298 327 247 214 265 299 304 60 94 55 58 73 53 354 49 122 146 147 151 159 183 205 218 228 231 233 229 225 225 221 220 222 223 219 212 212 213 212 210 205 203 204 206 209 209 207 207 208 206 204 209 216 213 211 207 200 207 215 213 212 209 201 199 207 209 202 198 196 195 195 191 192 198 201 198 195 195 194 190 189 187 187 193 191 186 189 192 189
351 58 0 314 300 295 303 289 277 306 303 261 196 214 273 295 90 107 62 55 90 105 73 10 49 98 102 105 121 136 156 181 205 197 199 208 215 227 228 228 229 226 220 212 209 208 207 209 207 205 207 209 211 210 210 213 216 215 211 214 222 223 220 212 202 203 208 212 216 209 201 199 199 204 209 205 199 197 197 193 192 197 200 198 197 197 195 191 189 185 184 190 191 187 188 194 198
34 48 295 259 252 266 276 277 282 289 276 276 156 221 274 308 59 91 53 50 149 119 105 132 91 85 88 98 109 112 117 126 148 153 144 144 166 208 218 222 224 221 218 215 211 209 207 207 208 209 210 211 214 215 219 224 226 226 225 222 221 227 233 225 207 201 201 207 218 212 199 201 202 200 209 211 202 199 200 196 194 197 198 196 197 196 194 191 187 186 187 190 190 190 189 192 198
17 264 248 234 228 241 259 267 289 275 258 280 33 280 276 298 24 60 59 105 197 102 118 146 103 80 82 87 89 92 100 105 111 116 113 112 118 146 188 206 215 215 213 210 209 211 212 211 212 214 213 211 210 216 229 245 251 251 251 246 235 234 242 246 229 218 218 212 218 220 205 197 199 199 205 208 203 202 204 199 195 197 197 195 196 196 194 191 187 187 189 190 193 194 194 194 199
230 245 255 248 223 214 241 226 230 261 259 71 54 305 266 267 5 70 113 147 151 86 118 113 84 78 80 79 75 74 83 97 103 104 107 116 121 134 166 189 204 212 210 209 210 211 215 216 216 217 215 210 213 222 233 245 254 262 270 267 262 257 257 269 273 255 244 235 228 225 212 195 190 193 202 204 202 202 203 199 196 195 194 195 197 195 193 191 189 189 189 191 194 197 199 199 203
222 235 241 251 236 210 236 228 223 257 255 82 48 333 264 265 24 31 41 105 96 101 81 73 79 83 81 81 82 76 75 85 93 96 102 107 111 122 139 154 173 194 202 208 213 217 220 220 221 221 210 206 214 226 238 244 246 254 262 258 256 267 270 260 262 260 260 264 259 241 216 202 195 190 196 201 201 201 198 195 196 194 192 193 195 194 191 191 190 190 190 193 195 197 201 202 204
209 230 228 239 253 244 246 243 245 262 108 91 61 278 258 258 71 27 338 34 83 119 93 77 85 85 79 81 83 80 75 77 81 85 91 95 97 102 107 114 120 129 159 195 211 220 226 225 227 222 208 206 214 222 231 240 243 243 243 245 252 268 275 257 251 257 262 277 286 285 259 224 209 193 195 199 199 199 195 192 194 193 191 190 190 190 191 191 191 192 193 196 198 199 202 205 208
200 243 261 258 271 270 273 278 273 279 151 114 129 235 276 323 103 111 349 39 100 116 112 109 106 97 89 84 77 74 74 75 79 81 81 86 91 92 94 97 95 102 141 185 209 216 219 220 220 218 212 209 213 216 217 231 245 243 235 238 250 262 264 253 251 261 273 287 297 302 298 280 272 229 198 196 195 197 194 191 193 194 191 188 187 189 192 193 194 196 198 200 202 201 202 207 211
165 220 253 268 306 284 285 305 316 317 298 200 183 243 294 30 136 124 54 118 118 117 115 111 110 109 100 84 72 69 71 71 75 78 77 81 87 92 92 94 95 105 149 191 209 207 206 215 218 217 215 209 208 212 215 225 238 239 233 236 241 240 242 253 266 278 290 299 295 290 288 286 288 279 231 210 198 197 194 190 192 195 192 190 190 193 196 197 197 201 203 204 206 205 204 208 212
153 214 236 53 26 298 279 274 264 276 273 247 208 259 251 152 118 38 30 61 86 102 99 85 83 88 82 75 68 66 71 72 73 73 73 76 80 85 88 91 98 110 154 199 211 202 204 220 224 219 215 212 210 211 218 227 229 228 232 237 239 235 240 261 279 283 288 292 284 274 270 278 284 274 256 238 210 198 195 192 194 195 194 195 195 197 200 200 199 203 206 208 210 209 207 210 213
265 250 46 78 70 268 266 263 240 240 258 246 210 265 279 126 73 26 31 42 37 56 69 61 56 65 63 68 71 68 71 76 78 76 73 73 75 78 85 89 95 107 154 204 202 193 209 228 231 223 221 226 225 216 219 233 237 241 248 257 265 266 261 255 245 252 270 271 262 257 264 270 268 256 249 247 233 214 199 195 197 196 196 199 199 200 202 201 201 206 208 210 212 212 210 212 215
302 335 13 268 267 252 223 255 266 258 266 268 206 251 312 30 38 16 20 24 358 16 61 55 40 55 54 61 69 70 72 73 74 72 68 68 70 72 80 89 101 113 144 168 103 165 209 231 233 228 231 236 230 221 225 234 241 255 275 286 289 289 285 265 232 238 255 256 243 239 256 263 260 251 245 245 243 233 213 203 201 198 198 200 201 203 203 202 204 208 210 212 212 211 212 214 216
210 240 221 244 302 301 277 276 285 283 277 282 284 252 58 42 15 357 0 2 352 1 52 49 36 49 52 54 60 63 67 66 67 69 66 65 66 70 76 87 104 115 110 90 88 132 211 237 231 218 219 228 224 217 221 227 228 238 266 293 299 294 284 264 244 243 243 238 236 236 246 257 256 247 240 234 231 229 224 216 206 201 202 201 201 204 204 203 206 209 212 215 213 211 212 216 217
245 246 249 260 284 279 284 276 272 286 281 277 282 276 67 49 11 359 2 1 2 11 43 53 45 49 52 52 52 54 60 63 66 68 68 66 64 68 78 88 109 133 127 97 93 129 203 246 247 223 212 219 229 225 226 229 222 218 225 242 254 240 242 245 245 251 251 235 226 226 231 241 245 242 236 227 223 223 223 219 211 204 204 203 202 205 206 205 207 210 214 217 216 213 213 217 220
322 318 321 305 286 272 270 254 217 260 280 290 284 277 66 44 10 13 12 12 24 37 53 61 56 53 54 55 52 49 50 52 60 65 65 62 54 50 50 36 51 94 102 95 93 136 199 239 257 251 220 218 235 239 239 242 228 216 215 211 210 211 221 233 239 249 256 245 227 222 222 226 235 241 238 229 224 223 219 216 213 209 207 206 204 206 208 208 210 212 214 217 217 214 215 218 220